This demonstration page uses our WeatherBlox Daily Observations layout. Learn more.

Left ArrowRight Arrow

Hourly Observations for May 19, 2016

Temp ( °F °C ) Dew Point ( °F °C ) Humidity (%) Winds ( mph kmh ) Pressure ( in mb ) Visibility ( mi km ) Precip ( " mm )
12:52 am 00:52 Clear 52 11.1 43 6.1 72 72 ENE 7 11 30.15 1021 10 16 0.00 0.00
1:52 am 01:52 Clear 48 8.9 42 5.6 80 80 Calm 30.14 1021 10 16 0.00 0.00
2:52 am 02:52 Clear 47 8.3 41 5 80 80 Calm 30.13 1020 10 16 0.00 0.00
3:52 am 03:52 Clear 50 10 42 5.6 74 74 E 5 7 30.11 1020 10 16 0.00 0.00
4:52 am 04:52 Clear 49 9.4 41 5 74 74 ESE 7 11 30.11 1020 10 16 0.00 0.00
5:52 am 05:52 Clear 48 8.9 41 5 77 77 ESE 3 6 30.13 1020 10 16 0.00 0.00
6:52 am 06:52 Sunny 49 9.4 42 5.6 77 77 Calm 30.15 1021 10 16 0.00 0.00
7:52 am 07:52 Mostly Cloudy 56 13.3 46 7.8 70 70 ESE 6 9 30.16 1021 10 16 0.00 0.00
8:52 am 08:52 Sunny 61 16.1 44 6.7 54 54 ESE 10 17 30.15 1021 10 16 0.00 0.00
9:52 am 09:52 Mostly Sunny 63 17.2 46 7.8 54 54 SE 8 13 30.14 1021 10 16 0.00 0.00
10:52 am 10:52 Mostly Sunny 63 17.2 46 7.8 54 54 SE 12 19 30.12 1020 10 16 0.00 0.00
11:52 am 11:52 Mostly Sunny 65 18.3 44 6.7 47 47 SE 9 15 30.11 1020 10 16 0.00 0.00
12:52 pm 12:52 Mostly Cloudy 66 18.9 44 6.7 45 45 SE 9 15 30.11 1020 10 16 0.00 0.00
1:52 pm 13:52 Mostly Cloudy 66 18.9 44 6.7 45 45 ESE 8 13 30.09 1019 10 16 0.00 0.00
2:52 pm 14:52 Mostly Cloudy 66 18.9 44 6.7 45 45 ESE 10 17 30.06 1018 10 16 0.00 0.00
3:52 pm 15:52 Mostly Cloudy 67 19.4 46 7.8 47 47 ESE 9 15 30.04 1017 10 16 0.00 0.00
4:52 pm 16:52 Mostly Cloudy 66 18.9 46 7.8 49 49 ESE 9 15 30.03 1017 10 16 0.00 0.00
5:52 pm 17:52 Mostly Cloudy 65 18.3 47 8.3 52 52 ESE 7 11 30.02 1017 10 16 0.00 0.00
6:52 pm 18:52 Cloudy with Light Rain 64 17.8 48 8.9 56 56 ESE 7 11 30.01 1016 10 16 0.00 0.03
7:52 pm 19:52 Cloudy 61 16.1 52 11.1 72 72 Calm 30.01 1016 10 16 0.00 0.03
8:52 pm 20:52 Cloudy 60 15.6 54 12.2 80 80 E 6 9 30.01 1016 10 16 0.00 0.00
9:52 pm 21:52 Cloudy with Light Rain 59 15 54 12.2 83 83 E 6 9 30.03 1017 9 14 0.03 0.76
10:52 pm 22:52 Cloudy with Light Rain 58 14.4 53 11.7 84 84 E 3 6 30.04 1017 10 16 0.05 1.27
11:52 pm 23:52 Cloudy with Light Rain 57 13.9 53 11.7 87 87 ESE 5 7 30.03 1017 10 16 0.03 0.76

Powered by AerisWeather